STARLINK-1811 (46710 NORAD) Tracking and Keplerian Element Data

This shows tracking and keplerian element data for the satellite.

Feedback or suggestion? Click here.




ElementValue
Catalog46710
NameSTARLINK-1811
Epoch Orbit1458
Epoch Day18.25002315
Epoch Year2021
RAAN40.2885
Inclination53.0572
Eccentricity0.0001615
Argument of Perigee60.6762
Mean Anonmoly22.4068
Mean Motion15.06404821
Decay Rate-0.00033487
L11 46710U 20073AS 21018.25002315 -.00033487 00000-0 -22395-2 0 9990
L22 46710 53.0572 40.2885 0001615 60.6762 22.4068 15.06404821 14580

Live tracking and technical data element details for STARLINK-1811 (NORAD 46710). STARLINK-1811 can be tracked NOW for your location showing map with azimuth and elevation plus other details from your city location.

Track the satellite on the map from your city or location and see movement details for azimuth, elevation, latitude, longitude, range, height, and movement on the map or in text.







IsCatalogInMostPopularTable: catalog: 46710, numindb: 30
Update: records affected: 1



GetName: 46710 STARLINK-1811

Hit Count: updated at: Tue, 19 Jan 2021 02:35:09 GMT